Regional Weather Roundup
Issued by NWS

Home | Current Version | Previous Version | Text Only | Print | Product List | Glossary On
Versions: 1 2 3 4 5 6 7 8 9 10 11 12 13 14 15 16 17 18 19 20 21 22 23 24 25 26 27 28 29 30 31 32 33 34 35 36 37 38 39 40 41 42 43 44 45 46 47 48 49 50
000
ASUS44 KMEG 251710
RWRTN
TENNESSEE HOURLY STATE WEATHER ROUNDUP
NATIONAL WEATHER SERVICE MEMPHIS TN
1200 PM CDT SAT MAR 25 2017

TNZ002-004-019-021-049-052-054-088>092-251800-
WEST TENNESSEE

CITY           SKY/WX    TMP DP  RH WIND       PRES   REMARKS
MEMPHIS INTL   LGT RAIN  63  58  83 S17G24    29.95R
NWS MEMPHIS      N/A     63 N/A N/A MISG        N/A
JACKSON        CLOUDY    63  59  87 SE14G22   29.98F
DYERSBURG      CLOUDY    63  59  87 SE13G18   29.95F
SOMERVILLE     CLOUDY    61  59  94 SE10G17   29.96S
BOLIVAR        CLOUDY    63  59  88 SE20G26   29.99S
PARIS          MOSUNNY   66  55  68 S13       30.00R
HUNTINGDON     PTSUNNY   64  57  77 S20G28    29.99S
SAVANNAH       MOSUNNY   61  57  88 SE13G20   30.03F FOG
$$

TNZ008-025-027-028-033-062-065-066-251800-
NORTH MIDDLE TENNESSEE

CITY           SKY/WX    TMP DP  RH WIND       PRES   REMARKS
NASHVILLE      CLOUDY    74  51  44 SW24G35   30.07F
PORTLAND       PTSUNNY   72  52  49 S20G29    30.07S
CLARKSVILLE    CLOUDY    71  52  50 S22G28    30.01S
SMYRNA         PTSUNNY   73  53  49 S21G31    30.08F
COOKEVILLE     SUNNY     70  52  52 S13G20    30.13F
GALLATIN       PTSUNNY   75  52  43 S21G28    30.10F
CROSSVILLE     CLOUDY    64  50  60 S9G21     30.19S
$$

TNZ061-075-076-078-094-096-097-251800-
SOUTH MIDDLE TENNESSEE

CITY           SKY/WX    TMP DP  RH WIND       PRES   REMARKS
FAYETTEVILLE   PTSUNNY   72  54  53 S18G26    30.12F
TULLAHOMA      MOSUNNY   72  48  43 S14G28    30.13F
WINCHESTER     PTSUNNY   72  54  53 S10       30.14F
MCMINNVILLE    SUNNY     73  52  46 S16G24    30.12F
COLUMBIA       CLOUDY    70  57  64 S14       30.07F
SHELBYVILLE    MOSUNNY   75  55  50 S25       30.11F
$$

TNZ017-018-042-046-047-251800-
NORTHEAST TENNESSEE

CITY           SKY/WX    TMP DP  RH WIND       PRES   REMARKS
TRI CITIES     PTSUNNY   70  48  45 SW8       30.22F
ELIZABETHTON   MOSUNNY   72  46  40 CALM      30.21F
$$

TNZ012-013-036-069-073-074-251800-
CENTRAL EAST TENNESSEE

CITY           SKY/WX    TMP DP  RH WIND       PRES   REMARKS
KNOXVILLE      PTSUNNY   69  49  48 S12G23    30.20F
OAK RIDGE      PTSUNNY   72  49  44 S13G22    30.21F
DOWNTOWN KNOXV MOSUNNY   73  52  46 SW9G16    30.20F
GATLINBURG     SUNNY     70  48  46 VRB3      30.20F
MORRISTOWN     SUNNY     68  48  49 N6        30.21F
JACKSBORO      MOSUNNY   70  50  49 S18G28    30.22S
$$

TNZ083-085-099-251800-
SOUTHEAST TENNESSEE

CITY           SKY/WX    TMP DP  RH WIND       PRES   REMARKS
CHATTANOOGA    PTSUNNY   72  52  49 S12G22    30.18F
$$

SKY/WX REPORTED AS FAIR MEANS FEW OR NO CLOUDS BELOW
12 THOUSAND FEET.





USA.gov is the U.S. government's official web portal to all federal, state and local government web resources and services.